Location: Trebic
(49.2170°N, 15.8830°E)
Time: 09:50:38
(UTC+02:00)

Transit 2A Rocket - Pass Details

Date: 28 July 2019
Orbit: 590 x 913 km, 66.7° (Epoch: 18 August)

Event Time Altitude Azimuth Distance (km) Brightness Sun altitude
Rises 11:03:39 0° 322° (NW) 3,162 7.8 51.5°
Reaches altitude 10° 11:06:08 10° 319° (NW) 2,183 7.1 51.8°
Maximum altitude 11:10:59 63° 239° (WSW) 739 5.7 52.4°
Drops below altitude 10° 11:15:25 10° 159° (SSE) 1,996 7.9 52.9°
Sets 11:17:36 0° 156° (SSE) 2,867 8.5 53.1°
